Terminal Aerodrome Forecast
Issued by NWS Newport/Morehead City, NC

Home | Current Version | Previous Version | Text Only | Print | Product List | Glossary Off
Versions: 1 2 3 4 5 6 7 8 9 10 11 12 13 14 15 16

000
FTUS42 KMHX 251100
TAFEWN
TAF
KEWN 251120Z 2512/2612 36006KT P6SM SKC
     FM251500 04012G20KT P6SM SCT050
     FM252300 05008KT P6SM SKC=

USA.gov is the U.S. government's official web portal to all federal, state and local government web resources and services.